Location: Newark
(51.2625°N, 13.3939°E)
Time: 05:03:56
(UTC+00:00)

deb Explorer IX - Pass Details

Date: 26 November 2019
Orbit: 546 x 1104 km, 38.8° (Epoch: 12 December)

Event Time Altitude Azimuth Distance (km) Brightness Sun altitude
Rises 23:15:37 0° 249° (WSW) 3,891 - -59.5°
Reaches altitude 10° 23:18:50 10° 238° (WSW) 2,895 - -59.4°
Maximum altitude 23:24:39 28° 183° (S) 1,790 - -59.2°
Drops below altitude 10° 23:29:59 10° 127° (SE) 2,634 - -58.9°
Sets 23:32:46 0° 116° (ESE) 3,484 - -58.8°
